Powrót do katalogu

COSMOS 970 DEB

AktywnyLEO
NORAD 64997·DEBRIS·🇷🇺 Russia

Wystrzelony Dec 21, 1977 z Baikonur Cosmodrome

Loading…

Następne Przeloty (najbliższe 24 godziny)

TLE

ŚwieżeSource: Space-Track

Epoka: Sep 14, 2026, 03:21 UTC

1 64997U 77121DJ  26257.14015099  .00000058  00000-0  14862-3 0  9991
2 64997  65.8152 171.0537 0146006 202.1717 157.2987 13.68416863212421

Śledź COSMOS 970 DEB w czasie rzeczywistym z AllMySat

Download on the App Store